| time (UTC) | temp F | wind direction | speed MPH | gust MPH | rain 1hr in | rain 24hr in | rain mn in | humidity % | barometer mb |
| 20260506144336 | 0 | 135 | 7.0 | 19.0 | 0.00 | 0.01 | 0.01 | 1002.7 | |
| 20260506143435 | 0 | 158 | 6.0 | 14.0 | 0.00 | 0.01 | 0.01 | 1002.7 | |
| 20260506142531 | 0 | 180 | 6.0 | 17.0 | 0.00 | 0.01 | 0.01 | 1002.9 | |
| 20260506141631 | 0 | 180 | 7.0 | 21.0 | 0.00 | 0.01 | 0.01 | 1003.0 | |
| 20260506140730 | 0 | 180 | 12.0 | 22.0 | 0.00 | 0.01 | 0.01 | 1003.0 | |
| 20260506135828 | 0 | 225 | 5.0 | 21.0 | 0.00 | 0.01 | 0.01 | 1003.0 | |
| 20260506134927 | 0 | 180 | 17.0 | 20.0 | 0.00 | 0.01 | 0.01 | 1002.9 | |
| 20260506134027 | 0 | 180 | 8.0 | 20.0 | 0.00 | 0.01 | 0.01 | 1002.9 | |
| 20260506133122 | 0 | 203 | 13.0 | 19.0 | 0.00 | 0.01 | 0.01 | 1003.3 | |
| 20260506132221 | 0 | 180 | 12.0 | 20.0 | 0.00 | 0.01 | 0.01 | 1003.3 | |
| 20260506131320 | 0 | 180 | 1.0 | 9.0 | 0.00 | 0.01 | 0.01 | 1003.4 | |
| 20260506130419 | 0 | 270 | 3.0 | 9.0 | 0.00 | 0.01 | 0.01 | 1003.6 | |
| 20260506125518 | 0 | 225 | 2.0 | 11.0 | 0.00 | 0.01 | 0.01 | 1004.0 | |
| 20260506124616 | 0 | 180 | 6.0 | 10.0 | 0.00 | 0.01 | 0.01 | 1004.1 | |
| 20260506123720 | 0 | 180 | 4.0 | 15.0 | 0.00 | 0.01 | 0.01 | 1004.2 | |
| 20260506122825 | 0 | 180 | 9.0 | 18.0 | 0.00 | 0.01 | 0.01 | 1004.2 | |
| 20260506121930 | 0 | 180 | 6.0 | 14.0 | 0.00 | 0.01 | 0.01 | 1004.0 | |
| 20260506121035 | 0 | 225 | 9.0 | 16.0 | 0.00 | 0.01 | 0.01 | 1004.1 | |
| 20260506120139 | 0 | 225 | 3.0 | 13.0 | 0.00 | 0.01 | 0.01 | 1004.2 | |
| 20260506115242 | 0 | 315 | 1.0 | 11.0 | 0.00 | 0.01 | 0.01 | 1004.1 | |
| 20260506114347 | 0 | 158 | 2.0 | 11.0 | 0.00 | 0.01 | 0.01 | 1004.3 | |
| 20260506113453 | 0 | 180 | 3.0 | 11.0 | 0.00 | 0.01 | 0.01 | 1004.3 | |
| 20260506112558 | 0 | 180 | 5.0 | 12.0 | 0.00 | 0.01 | 0.01 | 1004.4 | |
| 20260506111702 | 0 | 225 | 2.0 | 13.0 | 0.00 | 0.01 | 0.01 | 1004.7 | |
| 20260506110808 | 0 | 135 | 0.0 | 12.0 | 0.00 | 0.01 | 0.01 | 1004.5 | |
| 20260506105917 | 0 | 270 | 5.0 | 14.0 | 0.00 | 0.01 | 0.01 | 1004.8 | |
| 20260506105023 | 0 | 225 | 7.0 | 14.0 | 0.00 | 0.01 | 0.01 | 1004.7 | |
| 20260506104128 | 0 | 225 | 2.0 | 13.0 | 0.00 | 0.01 | 0.01 | 1004.7 | |
| 20260506103230 | 0 | 45 | 1.0 | 14.0 | 0.00 | 0.01 | 0.01 | 1004.9 | |
| 20260506102333 | 0 | 180 | 10.0 | 14.0 | 0.00 | 0.01 | 0.01 | 1004.9 | |
| 20260506101439 | 0 | 270 | 9.0 | 15.0 | 0.00 | 0.01 | 0.01 | 1005.3 | |
| 20260506100540 | 0 | 180 | 3.0 | 7.0 | 0.00 | 0.01 | 0.01 | 1005.2 | |
| 20260506095644 | 0 | 270 | 1.0 | 12.0 | 0.00 | 0.01 | 0.01 | 1005.4 | |
| 20260506094749 | 0 | 248 | 6.0 | 10.0 | 0.00 | 0.01 | 0.01 | 1005.4 | |
| 20260506093855 | 0 | 270 | 7.0 | 10.0 | 0.00 | 0.01 | 0.01 | 1005.4 | |
| 20260506093000 | 0 | 270 | 3.0 | 12.0 | 0.00 | 0.01 | 0.01 | 1005.3 | |
| 20260506092107 | 0 | 270 | 4.0 | 10.0 | 0.00 | 0.01 | 0.01 | 1005.4 | |
| 20260506091213 | 0 | 225 | 2.0 | 13.0 | 0.00 | 0.01 | 0.01 | 1005.3 | |
| 20260506090319 | 0 | 225 | 7.0 | 13.0 | 0.00 | 0.01 | 0.01 | 1005.4 | |
| 20260506085426 | 0 | 158 | 8.0 | 9.0 | 0.00 | 0.01 | 0.01 | 1005.1 | |
| 20260506084530 | 0 | 135 | 6.0 | 12.0 | 0.00 | 0.01 | 0.01 | 1005.6 | |
| 20260506083636 | 0 | 0 | 9.0 | 13.0 | 0.00 | 0.01 | 0.01 | 1005.7 | |
| 20260506082741 | 0 | 0 | 6.0 | 9.0 | 0.00 | 0.01 | 0.01 | 1005.8 | |
| 20260506081844 | 0 | 315 | 8.0 | 11.0 | 0.00 | 0.01 | 0.01 | 1005.7 | |
| 20260506080949 | 0 | 270 | 2.0 | 12.0 | 0.00 | 0.01 | 0.01 | 1005.9 | |
| 20260506073407 | 0 | 0 | 11.0 | 14.0 | 0.00 | 0.01 | 0.01 | 1005.8 | |
| 20260506072514 | 0 | 270 | 5.0 | 14.0 | 0.00 | 0.01 | 0.01 | 1005.9 | |
| 20260506071621 | 0 | 0 | 5.0 | 13.0 | 0.00 | 0.01 | 0.01 | 1005.8 | |
| 20260506070721 | 0 | 270 | 8.0 | 17.0 | 0.00 | 0.01 | 0.01 | 1006.1 | |
| 20260506062252 | 0 | 0 | 8.0 | 15.0 | 0.00 | 0.01 | 0.01 | 1006.0 | |
| 20260506061359 | 0 | 0 | 9.0 | 19.0 | 0.00 | 0.01 | 0.01 | 1005.9 | |
| 20260506060506 | 0 | 270 | 6.0 | 20.0 | 0.00 | 0.01 | 0.01 | 1005.9 | |
| 20260506051137 | 0 | 315 | 1.0 | 8.0 | 0.00 | 0.01 | 0.01 | 1005.9 | |
| 20260506050245 | 0 | 90 | 0.0 | 3.0 | 0.00 | 0.01 | 0.01 | 1006.2 | |
| 20260506044456 | 0 | 270 | 0.0 | 2.0 | 0.00 | 0.01 | 0.01 | 1006.4 | |
| 20260506043558 | 0 | 0 | 1.0 | 1.0 | 0.00 | 0.01 | 0.01 | 1006.7 | |
| 20260506042703 | 0 | 0 | 0.0 | 2.0 | 0.00 | 0.01 | 0.01 | 1006.5 | |
| 20260506041807 | 0 | 0 | 2.0 | 3.0 | 0.00 | 0.01 | 0.01 | 1006.5 | |
| 20260506040912 | 0 | 0 | 1.0 | 3.0 | 0.00 | 0.01 | 0.01 | 1006.6 | |
| 20260506040019 | 0 | 0 | 0.0 | 0.0 | 0.00 | 0.01 | 0.01 | 1006.5 | |
| 20260506035122 | 0 | 0 | 0.0 | 0.0 | 0.00 | 0.01 | 0.01 | 1006.4 | |
| 20260506034228 | 0 | 0 | 0.0 | 0.0 | 0.00 | 0.01 | 0.01 | 1006.4 | |
| 20260506033334 | 0 | 0 | 0.0 | 0.0 | 0.00 | 0.01 | 0.01 | 1006.2 | |
| 20260506032440 | 0 | 0 | 0.0 | 0.0 | 0.00 | 0.01 | 0.01 | 1006.2 | |
| 20260506031546 | 0 | 0 | 0.0 | 0.0 | 0.00 | 0.01 | 0.01 | 1006.3 | |
| 20260506030648 | 0 | 0 | 0.0 | 3.0 | 0.00 | 0.01 | 0.01 | 1006.2 | |
| 20260506025753 | 0 | 0 | 0.0 | 0.0 | 0.00 | 0.01 | 0.01 | 1006.3 | |
| 20260506024857 | 0 | 0 | 0.0 | 1.0 | 0.00 | 0.01 | 0.01 | 1006.1 | |
| 20260506024003 | 0 | 0 | 1.0 | 1.0 | 0.00 | 0.01 | 0.01 | 1006.0 | |
| 20260506023108 | 0 | 0 | 0.0 | 1.0 | 0.00 | 0.01 | 0.01 | 1005.8 | |
| 20260506022214 | 0 | 0 | 0.0 | 0.0 | 0.00 | 0.01 | 0.01 | 1005.7 | |
| 20260506021319 | 0 | 0 | 0.0 | 0.0 | 0.00 | 0.01 | 0.01 | 1005.6 | |
| 20260506020424 | 0 | 0 | 1.0 | 2.0 | 0.00 | 0.01 | 0.01 | 1005.5 | |
| 20260506015528 | 0 | 0 | 0.0 | 3.0 | 0.01 | 0.01 | 0.01 | 1005.3 | |
| 20260506014631 | 0 | 0 | 2.0 | 4.0 | 0.01 | 0.01 | 0.01 | 1005.2 | |
| 20260506013736 | 0 | 0 | 2.0 | 3.0 | 0.01 | 0.01 | 0.01 | 1005.2 | |
| 20260506012835 | 0 | 0 | 2.0 | 2.0 | 0.01 | 0.01 | 0.01 | 1005.2 | |
| 20260506011941 | 0 | 0 | 1.0 | 4.0 | 0.01 | 0.01 | 0.01 | 1005.2 | |
| 20260506011047 | 0 | 0 | 1.0 | 7.0 | 0.00 | 0.00 | 0.00 | 1005.1 | |
| 20260506010152 | 0 | 0 | 5.0 | 5.0 | 0.00 | 0.00 | 0.00 | 1005.0 | |
| 20260506005257 | 0 | 45 | 3.0 | 7.0 | 0.00 | 0.00 | 0.00 | 1005.0 | |
| 20260506004403 | 0 | 0 | 0.0 | 4.0 | 0.00 | 0.00 | 0.00 | 1005.2 | |
| 20260506003505 | 0 | 203 | 2.0 | 3.0 | 0.00 | 0.00 | 0.00 | 1005.2 | |
| 20260506002611 | 0 | 315 | 1.0 | 5.0 | 0.00 | 0.00 | 0.00 | 1005.1 | |
| 20260506001711 | 0 | 315 | 4.0 | 5.0 | 0.00 | 0.00 | 0.00 | 1004.9 | |
| 20260506000816 | 0 | 0 | 3.0 | 5.0 | 0.00 | 0.00 | 0.00 | 1004.7 | |
| 20260505235916 | 0 | 0 | 2.0 | 4.0 | 0.00 | 0.00 | 0.00 | 1004.9 | |
| 20260505235021 | 0 | 270 | 1.0 | 2.0 | 0.00 | 0.00 | 0.00 | 1004.9 | |
| 20260505234127 | 0 | 270 | 1.0 | 3.0 | 0.00 | 0.00 | 0.00 | 1004.8 | |
| 20260505233234 | 0 | 203 | 2.0 | 2.0 | 0.00 | 0.00 | 0.00 | 1004.7 | |
| 20260505232339 | 0 | 225 | 2.0 | 14.0 | 0.00 | 0.00 | 0.00 | 1004.6 | |
| 20260505231445 | 0 | 270 | 2.0 | 8.0 | 0.00 | 0.00 | 0.00 | 1004.5 | |
| 20260505230550 | 0 | 180 | 4.0 | 8.0 | 0.00 | 0.00 | 0.00 | 1004.3 | |
| 20260505225633 | 0 | 225 | 2.0 | 6.0 | 0.00 | 0.00 | 0.00 | 1004.3 | |
| 20260505224734 | 0 | 180 | 3.0 | 9.0 | 0.00 | 0.00 | 0.00 | 1004.3 | |
| 20260505223839 | 0 | 225 | 4.0 | 13.0 | 0.00 | 0.00 | 0.00 | 1004.2 | |
| 20260505222946 | 0 | 180 | 5.0 | 9.0 | 0.00 | 0.00 | 0.00 | 1003.9 | |
| 20260505222051 | 0 | 180 | 10.0 | 12.0 | 0.00 | 0.00 | 0.00 | 1004.0 | |
| 20260505221159 | 0 | 203 | 5.0 | 7.0 | 0.00 | 0.00 | 0.00 | 1004.0 | |
| 20260505220304 | 0 | 180 | 2.0 | 7.0 | 0.00 | 0.00 | 0.00 | 1003.8 | |
| 20260505215411 | 0 | 180 | 5.0 | 6.0 | 0.00 | 0.00 | 0.00 | 1004.0 | |
| 20260505214518 | 0 | 135 | 2.0 | 6.0 | 0.00 | 0.00 | 0.00 | 1003.9 | |
| 20260505213623 | 0 | 203 | 5.0 | 7.0 | 0.00 | 0.00 | 0.00 | 1004.0 | |
| 20260505212728 | 0 | 180 | 1.0 | 4.0 | 0.00 | 0.00 | 0.00 | 1003.9 | |
| 20260505211833 | 0 | 135 | 2.0 | 7.0 | 0.00 | 0.00 | 0.00 | 1003.9 | |
| 20260505210936 | 0 | 135 | 5.0 | 9.0 | 0.00 | 0.00 | 0.00 | 1003.8 | |
| 20260505210044 | 0 | 135 | 8.0 | 10.0 | 0.00 | 0.00 | 0.00 | 1003.8 | |
| 20260505205150 | 0 | 180 | 2.0 | 9.0 | 0.00 | 0.00 | 0.00 | 1003.9 | |
| 20260505204257 | 0 | 180 | 5.0 | 9.0 | 0.00 | 0.00 | 0.00 | 1003.8 | |
| 20260505203402 | 0 | 180 | 4.0 | 10.0 | 0.00 | 0.00 | 0.00 | 1003.8 | |
| 20260505202509 | 0 | 180 | 11.0 | 13.0 | 0.00 | 0.00 | 0.00 | 1003.7 | |
| 20260505201611 | 0 | 180 | 6.0 | 11.0 | 0.00 | 0.00 | 0.00 | 1003.7 | |
| 20260505200717 | 0 | 158 | 5.0 | 7.0 | 0.00 | 0.00 | 0.00 | 1003.7 | |
| 20260505195816 | 0 | 180 | 4.0 | 9.0 | 0.00 | 0.00 | 0.00 | 1003.6 | |
| 20260505194915 | 0 | 180 | 3.0 | 13.0 | 0.00 | 0.00 | 0.00 | 1003.7 | |
| 20260505194013 | 0 | 180 | 4.0 | 6.0 | 0.00 | 0.00 | 0.00 | 1003.7 | |
| 20260505193113 | 0 | 180 | 6.0 | 10.0 | 0.00 | 0.00 | 0.00 | 1003.5 | |
| 20260505192212 | 0 | 180 | 7.0 | 12.0 | 0.00 | 0.00 | 0.00 | 1003.4 | |
| 20260505191312 | 0 | 180 | 4.0 | 10.0 | 0.00 | 0.00 | 0.00 | 1003.4 | |
| 20260505190412 | 0 | 225 | 10.0 | 14.0 | 0.00 | 0.00 | 0.00 | 1003.2 | |
| 20260505185511 | 0 | 225 | 5.0 | 16.0 | 0.00 | 0.00 | 0.00 | 1003.0 | |
| 20260505184610 | 0 | 135 | 6.0 | 11.0 | 0.00 | 0.00 | 0.00 | 1002.9 | |
| 20260505183709 | 0 | 180 | 10.0 | 14.0 | 0.00 | 0.00 | 0.00 | 1002.8 | |
| 20260505182808 | 0 | 135 | 7.0 | 12.0 | 0.00 | 0.00 | 0.00 | 1002.7 | |
| 20260505181908 | 0 | 203 | 4.0 | 11.0 | 0.00 | 0.00 | 0.00 | 1002.9 | |
| 20260505181002 | 0 | 203 | 2.0 | 3.0 | 0.00 | 0.00 | 0.00 | 1003.1 | |
| 20260505175200 | 0 | 270 | 0.0 | 4.0 | 0.00 | 0.00 | 0.00 | 1003.1 | |
| 20260505174257 | 0 | 225 | 1.0 | 3.0 | 0.00 | 0.00 | 0.00 | 1003.0 | |
| 20260505173357 | 0 | 225 | 2.0 | 2.0 | 0.00 | 0.00 | 0.00 | 1003.0 | |
| 20260505172453 | 0 | 225 | 1.0 | 1.0 | 0.00 | 0.00 | 0.00 | 1002.9 | |
| 20260505171551 | 0 | 225 | 0.0 | 1.0 | 0.00 | 0.00 | 0.00 | 1002.8 | |
| 20260505170650 | 0 | 225 | 0.0 | 1.0 | 0.00 | 0.00 | 0.00 | 1002.6 | |
| 20260505165750 | 0 | 180 | 0.0 | 4.0 | 0.00 | 0.00 | 0.00 | 1002.6 | |
| 20260505164848 | 0 | 180 | 2.0 | 7.0 | 0.00 | 0.00 | 0.00 | 1002.4 | |
| 20260505163948 | 0 | 180 | 2.0 | 4.0 | 0.00 | 0.00 | 0.00 | 1002.5 | |
| 20260505163047 | 0 | 180 | 3.0 | 6.0 | 0.00 | 0.00 | 0.00 | 1002.6 | |
| 20260505162146 | 0 | 135 | 5.0 | 13.0 | 0.00 | 0.00 | 0.00 | 1002.6 | |
| 20260505161246 | 0 | 180 | 9.0 | 16.0 | 0.00 | 0.00 | 0.00 | 1002.6 | |
| 20260505160346 | 0 | 203 | 9.0 | 15.0 | 0.00 | 0.00 | 0.00 | 1002.5 | |
| 20260505152742 | 0 | 180 | 8.0 | 19.0 | 0.00 | 0.00 | 0.00 | 1002.2 | |
| 20260505151841 | 0 | 225 | 10.0 | 18.0 | 0.00 | 0.00 | 0.00 | 1002.4 | |
| 20260505150941 | 0 | 180 | 9.0 | 19.0 | 0.00 | 0.00 | 0.00 | 1002.5 |